TimeEET,TemperatureF,Dew PointF,Humidity,Sea Level PressureIn,VisibilityMPH,Wind Direction,Wind SpeedMPH,Gust SpeedMPH,PrecipitationIn,Events,Conditions,WindDirDegrees,DateUTC
12:00 AM,64.4,35.6,34,29.86,-9999.0,Variable,2.3,-,N/A,,Clear,0,2013-03-25 22:00:00
1:00 AM,64.4,32.0,30,29.83,-9999.0,North,3.5,-,N/A,,Clear,360,2013-03-25 23:00:00
2:00 AM,64.4,30.2,28,29.83,-9999.0,Variable,2.3,-,N/A,,Clear,0,2013-03-26 00:00:00
3:00 AM,62.6,30.2,30,29.83,-9999.0,North,3.5,-,N/A,,Clear,360,2013-03-26 01:00:00
4:00 AM,66.2,26.6,23,29.83,-9999.0,North,5.8,-,N/A,,Clear,350,2013-03-26 02:00:00
5:00 AM,66.2,24.8,21,29.80,-9999.0,North,5.8,-,N/A,,Clear,360,2013-03-26 03:00:00
6:00 AM,68.0,26.6,21,29.80,-9999.0,NNE,6.9,-,N/A,,Clear,20,2013-03-26 04:00:00
7:00 AM,69.8,24.8,18,29.83,-9999.0,Variable,2.3,-,N/A,,Clear,0,2013-03-26 05:00:00
8:00 AM,78.8,33.8,20,29.83,-9999.0,NNE,2.3,-,N/A,,Clear,20,2013-03-26 06:00:00
9:00 AM,84.2,37.4,19,29.83,-9999.0,NE,2.3,-,N/A,,Clear,50,2013-03-26 07:00:00
10:00 AM,89.6,41.0,18,29.83,-9999.0,NE,3.5,-,N/A,,Clear,40,2013-03-26 08:00:00
11:00 AM,89.6,48.2,24,29.83,-9999.0,East,6.9,-,N/A,,Clear,90,2013-03-26 09:00:00
12:00 PM,95.0,26.6,9,29.83,-9999.0,SSE,4.6,-,N/A,,Clear,150,2013-03-26 10:00:00
1:00 PM,95.0,23.0,8,29.80,-9999.0,SSE,6.9,-,N/A,,Clear,160,2013-03-26 11:00:00
2:00 PM,91.4,35.6,14,29.77,-9999.0,SSE,8.1,-,N/A,,Clear,160,2013-03-26 12:00:00
3:00 PM,93.2,39.2,15,29.77,-9999.0,SSE,8.1,-,N/A,,Clear,160,2013-03-26 13:00:00
4:00 PM,87.8,42.8,21,29.74,-9999.0,SSE,9.2,-,N/A,,Clear,160,2013-03-26 14:00:00
5:00 PM,84.2,32.0,15,29.74,-9999.0,SSW,5.8,-,N/A,,Clear,200,2013-03-26 15:00:00
6:00 PM,82.4,26.6,13,29.74,-9999.0,SW,4.6,-,N/A,,Clear,220,2013-03-26 16:00:00
7:00 PM,78.8,21.2,12,29.74,-9999.0,WSW,2.3,-,N/A,,Clear,240,2013-03-26 17:00:00
8:00 PM,77.0,24.8,14,29.77,-9999.0,Calm,Calm,-,N/A,,Clear,0,2013-03-26 18:00:00
9:00 PM,73.4,32.0,22,29.80,-9999.0,Variable,2.3,-,N/A,,Clear,0,2013-03-26 19:00:00
10:00 PM,73.4,48.2,41,29.80,-9999.0,South,2.3,-,N/A,,Clear,170,2013-03-26 20:00:00
11:00 PM,73.4,50.0,44,29.80,5.0,South,2.3,-,N/A,,Unknown,190,2013-03-26 21:00:00